Regional Weather Roundup
Issued by NWS Raleigh/Durham, NC

Home | Current Version | Previous Version | Text Only | Print | Product List | Glossary On
Versions: 1 2 3 4 5 6 7 8 9 10 11 12 13 14 15 16 17 18 19 20 21 22 23 24 25 26 27 28 29 30 31 32 33 34 35 36 37 38 39 40 41 42 43 44 45 46 47 48 49 50
000
ASUS42 KRAH 290610
RWRRAH
NORTH CAROLINA WEATHER ROUNDUP
NATIONAL WEATHER SERVICE RALEIGH NC
200 AM EDT FRI MAY 29 2015

NOTE: "FAIR" INDICATES FEW OR NO CLOUDS BELOW 12,000 FEET WITH NO
SIGNIFICANT WEATHER AND/OR OBSTRUCTIONS TO VISIBILITY.

NCZ001-053-055-056-065-067-290700-
WESTERN NORTH CAROLINA

CITY           SKY/WX    TMP DP  RH WIND       PRES   REMARKS
ASHEVILLE      MOCLDY    64  62  93 CALM      30.26F
JEFFERSON      CLOUDY    61  61 100 CALM      30.30F
MORGANTON      MOCLDY    64  64 100 CALM      30.27F
HICKORY        MOCLDY    66  64  93 CALM      30.22F
RUTHERFORDTON  MOCLDY    64  64 100 CALM      30.23S
MOUNT AIRY       N/A     67  64  90 CALM      30.24F
BOONE          MOCLDY    58  58 100 CALM      30.31F
$$

NCZ021-022-025-041-071-084-088-290700-
CENTRAL NORTH CAROLINA

CITY           SKY/WX    TMP DP  RH WIND       PRES   REMARKS
CHARLOTTE      MOCLDY    71  66  84 S3        30.21F
GREENSBORO     MOCLDY    71  65  81 CALM      30.21F
WINSTON-SALEM  MOCLDY    69  63  81 CALM      30.23F
RALEIGH-DURHAM PTCLDY    71  67  87 SE3       30.22S
FORT BRAGG     CLEAR     71  63  75 S3        30.21S
FAYETTEVILLE   PTCLDY    70  63  78 S6        30.21F
BURLINGTON     PTCLDY    69  65  86 CALM      30.21F
LAURINBURG     PTCLDY    67  61  81 S6        30.22F
$$

NCZ011-015-027-028-043-044-047-080-103-290700-
NORTHEASTERN NORTH CAROLINA

CITY           SKY/WX    TMP DP  RH WIND       PRES   REMARKS
ROCKY MT-WILSO PTCLDY    70  64  81 SE3       30.22F
GREENVILLE     PTCLDY    70  63  78 S3        30.24S
WASHINGTON     CLEAR     69  63  81 CALM      30.24S
ELIZABETH CITY CLEAR     66  62  87 CALM      30.23S
MANTEO         MOCLDY    71  64  76 SW5       30.24S
CAPE HATTERAS  CLEAR     72  63  73 S3        30.23F
$$

NCZ078-087-090-091-093-098-101-290700-
SOUTHEASTERN NORTH CAROLINA

CITY           SKY/WX    TMP DP  RH WIND       PRES   REMARKS
LUMBERTON      CLEAR     65  62  90 CALM      30.21F
GOLDSBORO      PTCLDY    69  63  81 CALM      30.20F
KINSTON        MOCLDY    68  64  86 CALM      30.23F
KENANSVILLE    MOCLDY    64  62  93 CALM      30.24S
NEW BERN       CLEAR     64  59  83 CALM      30.24F
CHERRY POINT   CLEAR     63  59  87 CALM      30.23F
BEAUFORT       PTCLDY    65  62  90 CALM      30.22F
JACKSONVILLE   CLEAR     64  62  93 CALM      30.21F
WILMINGTON     CLEAR     65  62  90 CALM      30.22F
$$



USA.gov is the U.S. government's official web portal to all federal, state and local government web resources and services.